Location: Unspecified
(0.0000°N, 0.0000°E)
Time: 02:22:08
(UTC+00:00)

DFH-1 - Visible Passes

Search period start: 07 October 2022 00:00
Search period end: 17 October 2022 00:00
Orbit: 434 x 2021 km, 68.4° (Epoch: 06 October)

Date Brightness Start Highest point End Pass type
(mag) Time Alt. Az. Time Alt. Az. Time Alt. Az.
07 Oct 7.6 05:19:42 10° N 05:24:22 56° ENE 05:31:14 10° SSE visible
07 Oct 10.4 19:15:08 10° WSW 19:18:21 12° W 19:21:15 10° WNW visible
08 Oct 7.4 05:10:17 10° N 05:15:01 60° ENE 05:22:01 10° SSE visible
08 Oct 10.4 19:06:42 10° W 19:09:00 11° W 19:11:09 10° WNW visible
09 Oct 7.3 05:00:52 10° N 05:05:40 65° ENE 05:12:49 10° SSE visible
09 Oct 10.4 18:58:55 10° W 18:59:40 10° W 19:00:24 10° WNW visible
10 Oct 7.2 04:51:27 10° N 04:56:19 69° ENE 05:03:36 10° SSE visible
11 Oct 7.1 04:42:02 10° NNW 04:46:59 74° ENE 04:54:23 10° SSE visible
12 Oct 7.0 04:32:38 10° NNW 04:37:38 79° ENE 04:45:09 10° SSE visible
13 Oct 6.9 04:23:30 12° NNW 04:28:18 84° ENE 04:35:55 10° SSE visible
14 Oct 6.9 04:15:24 22° NNW 04:18:58 88° ENE 04:26:41 10° SSE visible
15 Oct 6.9 04:07:15 37° NNW 04:09:38 87° WSW 04:17:27 10° SSE visible
16 Oct 6.8 03:59:03 58° NNW 04:00:19 82° WSW 04:08:12 10° SSE visible
